TimeAST,TemperatureF,Dew PointF,Humidity,Sea Level PressureIn,VisibilityMPH,Wind Direction,Wind SpeedMPH,Gust SpeedMPH,PrecipitationIn,Events,Conditions,WindDirDegrees,DateUTC
12:00 AM,77.0,71.6,83,29.95,6.2,East,15.0,-,N/A,,Partly Cloudy,100,2014-03-01 04:00:00
1:00 AM,77.0,71.6,83,29.92,6.2,East,16.1,-,N/A,,Partly Cloudy,100,2014-03-01 05:00:00
2:00 AM,78,72,77,29.91,10,ESE,17.3,,,,Widespread Dust,110,2014-03-01 06:00:00
2:00 AM,77.0,71.6,83,29.89,6.2,ESE,17.3,-,N/A,,Partly Cloudy,110,2014-03-01 06:00:00
3:00 AM,77.0,73.4,89,29.89,6.2,ESE,16.1,-,N/A,,Partly Cloudy,110,2014-03-01 07:00:00
4:00 AM,77.0,73.4,89,29.89,6.2,ESE,19.6,-,N/A,,Partly Cloudy,120,2014-03-01 08:00:00
5:00 AM,77,73,85,29.89,10,ESE,17.3,,,,Widespread Dust,120,2014-03-01 09:00:00
5:00 AM,77.0,73.4,89,29.89,6.2,ESE,17.3,-,N/A,,Partly Cloudy,120,2014-03-01 09:00:00
8:00 AM,75,71,84,29.96,9,ESE,11.5,,,Rain,Light Rain,120,2014-03-01 12:00:00
8:00 AM,75.2,71.6,89,29.95,6.2,ESE,11.5,-,N/A,Rain,Light Rain,120,2014-03-01 12:00:00
9:00 AM,80.6,73.4,79,29.98,6.2,ESE,16.1,-,N/A,,Mostly Cloudy,120,2014-03-01 13:00:00
10:00 AM,82.4,73.4,74,29.98,6.2,SE,20.7,-,N/A,,Mostly Cloudy,130,2014-03-01 14:00:00
11:00 AM,82,74,71,29.98,16,ESE,21.9,,,,Partly Cloudy,120,2014-03-01 15:00:00
11:00 AM,82.4,73.4,74,29.98,6.2,ESE,21.9,-,N/A,,Partly Cloudy,120,2014-03-01 15:00:00
12:00 PM,82.4,75.2,79,29.98,6.2,ESE,19.6,-,N/A,,Scattered Clouds,110,2014-03-01 16:00:00
1:00 PM,82.4,75.2,79,29.95,6.2,SE,18.4,-,N/A,,Scattered Clouds,130,2014-03-01 17:00:00
2:00 PM,83,75,70,29.92,16,ESE,17.3,,,,Partly Cloudy,110,2014-03-01 18:00:00
2:00 PM,84.2,75.2,74,29.92,6.2,ESE,17.3,-,N/A,,Partly Cloudy,110,2014-03-01 18:00:00
3:00 PM,82.4,73.4,74,29.89,6.2,ESE,20.7,-,N/A,,Scattered Clouds,120,2014-03-01 19:00:00
4:00 PM,82.4,73.4,74,29.86,6.2,ESE,17.3,-,N/A,,Partly Cloudy,120,2014-03-01 20:00:00
5:00 PM,81,74,73,29.88,12,ESE,20.7,,,,Widespread Dust,120,2014-03-01 21:00:00
5:00 PM,82.4,73.4,74,29.86,6.2,ESE,20.7,-,N/A,,Partly Cloudy,120,2014-03-01 21:00:00
6:00 PM,78.8,73.4,83,29.86,6.2,ESE,20.7,-,N/A,,Partly Cloudy,110,2014-03-01 22:00:00
7:00 PM,78.8,73.4,83,29.89,6.2,ESE,20.7,-,N/A,,Scattered Clouds,120,2014-03-01 23:00:00
8:00 PM,79,74,79,29.90,11,ESE,20.7,,,,Widespread Dust,120,2014-03-02 00:00:00
8:00 PM,78.8,73.4,83,29.89,6.2,ESE,20.7,-,N/A,,Scattered Clouds,120,2014-03-02 00:00:00
9:00 PM,78.8,73.4,83,29.92,6.2,East,16.1,-,N/A,,Partly Cloudy,100,2014-03-02 01:00:00
10:00 PM,78.8,73.4,83,29.92,6.2,East,13.8,-,N/A,,Partly Cloudy,100,2014-03-02 02:00:00
11:00 PM,78,72,78,29.93,10,East,11.5,,,,Widespread Dust,100,2014-03-02 03:00:00
11:00 PM,78.8,73.4,83,29.92,6.2,East,11.5,-,N/A,,Partly Cloudy,100,2014-03-02 03:00:00